Current Version              Previous Version:    01  02  03  04  05  06  07  08  09  10  11  12  13  14  15  16  17  18  19  20  21  22  23  24  25  26  27  28  29  30  
   31  32  33  34  35  36  37  38  39  40  41  42  43  44  45  46  47  48  49  50  51  52  53  54  55  56  57  58  59  60  

[Printable]
937
ASUS44 KFWD 020315
RWRTX
NORTH TEXAS HOURLY WEATHER ROUNDUP
NATIONAL WEATHER SERVICE FORT WORTH TX
1000 PM CDT MON SEP 01 2014

NOTE: "FAIR" INDICATES FEW OR NO CLOUDS BELOW 12,000 FEET WITH NO
SIGNIFICANT WEATHER AND/OR OBSTRUCTIONS TO VISIBILITY.

TXZ118-119-020400-
DALLAS/FORT WORTH METROPLEX

CITY           SKY/WX    TMP DP  RH WIND       PRES   REMARKS
DFW AIRPORT    CLEAR     89  66  46 SE14      29.86S HX  91
DALLAS LOVE    CLEAR     89  68  49 S17G23    29.87R HX  93
FTW MEACHAM    CLEAR     89  67  47 SE17      29.86R HX  92
DAL-EXECUTIVE  CLEAR     88  67  49 SE12      29.88R HX  91
FTW-ALLIANCE   CLEAR     88  67  49 SE15G22   29.85S HX  91
FTW-NAS-JRB    CLEAR     92  65  40 SE16      29.90R HX  94
FTW-SPINKS     CLEAR     86  67  52 SE7       29.89R
ARLINGTON      CLEAR     88  65  46 SE14      29.87R HX  90
GRAND PRAIRIE  CLEAR     88  64  43 SE9       29.88S
ADDISON        CLEAR     88  66  48 SE15G23   29.88  HX  90
MESQUITE       CLEAR     85  67  55 SE7       29.89R
LANCASTER      CLEAR     83  67  58 SE7       29.89S
$$

TXZ091>094-102>105-117-120-121-131>134-020400-
NORTH CENTRAL TEXAS

CITY           SKY/WX    TMP DP  RH WIND       PRES   REMARKS
SHRMAN/DENISON CLEAR     86  67  52 SE14G22   29.87R
GAINESVILLE    CLEAR     84  69  60 SE12      29.87S
BOWIE          CLEAR     85  67  53 SE10G16   29.85R
BRIDGEPORT     CLEAR     88  62  41 S12       29.87R
DECATUR        CLEAR     86  66  50 SE13G21   29.87R
DENTON         CLEAR     88  66  48 S17       29.85S HX  90
MCKINNEY       CLEAR     85  69  58 SE10      29.87S
GREENVILLE     CLEAR     82  68  61 SE8       29.89S
ROCKWALL       CLEAR     84  69  61 SE8       29.87S
TERRELL        CLEAR     86  67  52 SE8       29.90R
WAXAHACHIE     CLEAR     86  62  45 SE7       29.90S
CLEBURNE       CLEAR     86  68  54 SE10      29.90R
GRANBURY       CLEAR     90  66  45 SE9       29.87S HX  92
$$

TXZ083>090-098>101-113>116-127>130-139>142-154-155-020400-
WESTERN NORTH TEXAS

CITY           SKY/WX    TMP DP  RH WIND       PRES   REMARKS
WICHITA FALLS  CLEAR     89  66  46 S17G26    29.80R HX  91
WF-KICKAPOO    CLEAR     89  63  41 SE14      29.82R
VERNON         CLEAR     91  58  32 S16       29.79S HX  90
ABILENE        CLEAR     90  60  36 S16       29.87R
ABILENE-DYESS  CLEAR     89  63  41 SE16      29.86R
BRECKENRIDGE   CLEAR     90  63  40 SE13      29.85R HX  90
GRAHAM         CLEAR     89  64  43 SE12G17   29.83R HX  90
MINERAL WELLS  CLEAR     86  66  51 SE12      29.85R
STEPHENVILLE   CLEAR     86  64  48 SE9       29.92R
COMANCHE         N/A     86  63  45 SE7       29.89R
BROWNWOOD      CLOUDY    86  63  45 SE8       29.89R
COLEMAN        CLEAR     87  59  39 S8        29.89R
BRADY          CLEAR     84  63  48 SE7       29.92R
$$

TXZ143>147-156>162-174-175-020400-
CENTRAL TEXAS

CITY           SKY/WX    TMP DP  RH WIND       PRES   REMARKS
WACO           CLEAR     88  68  51 SE10      29.89R HX  91
WACO-TSTC      CLEAR     90  66  45 S13       29.89R HX  92
WACO-MCGREGOR  CLEAR     88  66  48 S14       29.90R HX  90
HILLSBORO      CLEAR     86  65  49 SE10      29.90R
CORSICANA      CLEAR     86  71  60 SE12      29.91R HX  91
MEXIA          CLEAR     83  73  69 SE7       29.91R
HEARNE           N/A     84  71  63 SE9       29.91R
CAMERON        CLEAR     87  69  55 S9        29.90R HX  90
TEMPLE         CLEAR     88  64  45 SE13      29.90R
KILLEEN        CLEAR     88  68  51 SE16      29.91R HX  91
KILLEEN-SKYLRK CLEAR     88  66  48 SE12      29.90R HX  90
FORT HOOD      CLEAR     89  68  49 SE9       29.91R HX  93
GATESVILLE     CLEAR     88  68  51 SE9       29.92R HX  91
HAMILTON       CLEAR     86  66  51 S10       29.92R
LAMPASAS       CLEAR     88  73  59 S10       29.91R HX  95
$$

TXZ095>097-106>112-122>126-135>138-148>153-164>167-020400-
EAST TEXAS

CITY           SKY/WX    TMP DP  RH WIND       PRES   REMARKS
PARIS          CLEAR     79  64  61 S7        29.90R
SULPHUR SPRNGS CLEAR     85  66  52 S8        29.91S
MOUNT PLEASANT CLEAR     82  71  67 SE8       29.92S
GILMER         CLEAR     86  73  66 S10G17    29.94S HX  93
MINEOLA        CLEAR     84  70  61 SE6       29.92S
TYLER          CLEAR     85  73  67 S14       29.93R HX  91
LONGVIEW       CLEAR     84  72  67 S10       29.93S
MARSHALL       CLEAR     83  76  79 S8        29.96S HX  92
ATHENS         CLEAR     81  72  74 SE6       29.91S
PALESTINE      CLEAR     84  73  71 SE7       29.94R HX  90
JACKSONVILLE   CLEAR     82  74  76 SE8       29.97R
HENDERSON      CLEAR     82  72  70 S8        29.95S
NACOGDOCHES    CLEAR     81  73  78 SE8       29.97R
LUFKIN         CLEAR     83  75  77 SE7       29.96R HX  90
$$

SUPPLEMENTAL OBSERVATIONS (CENTRAL)

CITY           SKY/WX    TMP DP  RH WIND       PRES   REMARKS
LAKE TEXOMA      N/A     86  68  54 SE10        N/A
CADDO GRASSLND   N/A     84  66  54 S7          N/A
PAT MAYSE LAKE   N/A     84  68  58 SE9         N/A
GREENVILLE       N/A     84  66  54 S8          N/A
CEDAR HILL       N/A     86  64  48 SE6         N/A
LAKE LIMESTONE   N/A     84  70  61 SE6         N/A
MCGREGOR         N/A     88  68  51 S14         N/A  HX  91
$$

SUPPLEMENTAL OBSERVATIONS (WEST)

CITY           SKY/WX    TMP DP  RH WIND       PRES   REMARKS
MILLERS CREEK    N/A     90  59  35 S15         N/A
LBJ GRASSLAND    N/A     88  66  48 SE10        N/A  HX  90
GRANBURY         N/A     90  66  45 SE10        N/A  HX  92
COMANCHE         N/A     86  63  45 SE10        N/A
HAMBY            N/A     88  57  35 S10         N/A
IVIE RESERVOIR   N/A    N/A N/A N/A SE10        N/A
COLORADO BEND    N/A     86  66  51 S12G21      N/A
$$

SUPPLEMENTAL OBSERVATIONS (EAST)

CITY           SKY/WX    TMP DP  RH WIND       PRES   REMARKS
CLARKSVILLE      N/A     81  66  61 S5          N/A
TEXARKANA        N/A     82  73  74 S3          N/A
LINDEN           N/A     82  72  69 S2          N/A
GILMER           N/A     84  70  61 S9          N/A
HENDERSON        N/A     82  72  69 S9          N/A
LUFKIN           N/A     81  73  78 MISG        N/A
N SABINE NF      N/A     81  75  83 MISG        N/A
S SABINE NF      N/A     79  75  89 SE1         N/A
$$

SUPPLEMENTAL OBSERVATIONS ARE A COLLECTION OF AUTOMATED INSTRUMENTS
THAT ARE MAINTAINED BY A VARIETY OF FEDERAL AND STATE AGENCIES.
CERTAIN ELEMENTS...SUCH AS HUMIDITY VALUES AND SUSTAINED WIND
SPEEDS...MAY BE APPROXIMATED.